Regional Weather Roundup
Issued by NWS Newport/Morehead, NC

Current Version | Previous Version | Graphics & Text | Print | Product List | Glossary Off
Versions: 1 2 3 4 5 6 7 8 9 10 11 12 13 14 15 16 17 18 19 20 21 22 23 24 25 26 27 28 29 30 31 32 33 34 35 36 37 38 39 40 41 42 43 44 45 46 47 48 49 50

000
ASUS42 KMHX 271812
RWRMHX
WEATHER ROUNDUP FOR EASTERN NORTH CAROLINA
NATIONAL WEATHER SERVICE NEWPORT/MOREHEAD CITY NC
200 PM EDT FRI MAR 27 2015

NOTE: "FAIR" INDICATES FEW OR NO CLOUDS BELOW 12,000 FEET
WITH NO SIGNIFICANT WEATHER AND/OR OBSTRUCTIONS TO VISIBILITY

NCZ015>017-031-032-045>047-102-103-271900-
NORTH COAST

CITY           SKY/WX    TMP DP  RH WIND       PRES   REMARKS
EDENTON        RAIN      45  43  93 NE12G23   29.76F
ELIZABETH CITY RAIN      45  43  93 N18G28    29.76R FOG
KITTY HAWK     CLOUDY    42  41  95 N14G24    29.74R FOG
MANTEO         CLOUDY    42  41  96 N17G30    29.76R FOG

$$

NCZ045>047-081-094-103-104-271900-
CENTRAL COAST

CITY           SKY/WX    TMP DP  RH WIND       PRES   REMARKS
FRISCO         CLOUDY    47  43  86 N10G24    29.70F
SWANQUARTER      N/A     46 N/A N/A NE21      29.71R

$$

NCZ095-097-098-100-101-271900-
SOUTHERN COAST

CITY           SKY/WX    TMP DP  RH WIND       PRES   REMARKS
BEAUFORT       CLOUDY    51  49  92 NE14G23   29.69S
CEDAR ISLAND     N/A     48 N/A N/A NE13G25   29.74S
JACKSONVILLE   LGT RAIN  51  47  86 N17       29.69S
PINEY ISLAND   CLOUDY   N/A N/A N/A N17       29.72R
WILMINGTON     CLOUDY    56  52  86 N14       29.66R


$$

NCZ011>013-027>030-043-044-078>080-089-090>093-098-271900-
COASTAL PLAIN

CITY           SKY/WX    TMP DP  RH WIND       PRES   REMARKS
AHOSKIE        LGT RAIN  44  42  91 N14       29.80R
CLINTON        RAIN      48  47  95 N9        29.71F
ELIZABETHTOWN  RAIN      49  48  97 N5        29.69S
GOLDSBORO      LGT RAIN  47  47  99 NE14G23   29.68F
GREENVILLE     LGT RAIN  46  45  93 NE14      29.77F
HAVELOCK       LGT RAIN  50  48  93 NE18      29.72R FOG
KENANSVILLE    LGT RAIN  48  46  95 N14G20    29.71F
KINSTON        RAIN      48  46  93 N13G20    29.72F
NEW BERN       LGT RAIN  49  46  90 N15       29.73R
RICHLANDS      CLOUDY    50  45  81 NE17      29.70F
ROCKY MOUNT    CLOUDY    46  43  89 N20       29.74F
WASHINGTON     RAIN      46  43  92 NE13      29.76R
WHITEVILLE     LGT RAIN  52  49  91 NE14      29.67R

$$

AMZ130-135-150-152-154-156-158-170-250-252-270-ANZ085-086-088-633-658-670-271900-
MARINE OBSERVATIONS

STATION/POSITION TIME  TEMP    WIND        PRES    WAVE   SWELL
                       AIR SEA DIR/SP/G            HT/PER HT/PER
                 (UTC) (F)     (DEG/KT/KT) (MB)    (FT/S) (FT/S)
CHESAPEAKE LIGHT 1700   41      10/ 14/ 17 1008.1
64 E VA BEACH    1750   46 52  360/ 23/ 29 1004.8   10/ 7
DUCK             1700   42 42   10/ 19/ 22 1005.7
2 E DUCK         1711      42                N/A     6/ 5   2/11
10 NE DUCK       NOT AVBL
OREGON INLET     1700   42 58  360/ 14/ 18 1006.0
HATTERAS CG      1706   48 60   20/ 21/ 25 1005.7
CAPE LOOKOUT     1800   52      40/ 21/ 24 1004.6
BEAUFORT LAB     1706   52 58   30/ 12/ 16 1004.6
27 SE WRIGHTSVLE 1700   62 65  240/ 19/ 23 1006.5
5 SE WRIGHTSVLE  1700   62 58  220/ 17/ 21 1004.2
225 S CAPE HAT   1750   71 69  220/ 21/ 27 1007.9   11/ 8   2/13
41 SE CHARLESTON 1750   68 70  230/ 21/ 25 1004.6    6/ 6   3/ 8

$$



USA.gov is the U.S. government's official web portal to all federal, state and local government web resources and services.